Dewpoint
54 53 53 54 54 54 54 55 56 56 57 57 57 57 57 58 58 58 58 58 58 58 58 58 58 58 58 58 58 59 59 60 61 62 62 63 64 65 66 67 68 69 70 70 70 70 71 70 70 69 69 69 69 69 69 69 69 69 68 69 69 69 68 70 71 72 72 72 72 72 72 73 73 73 74 74 74 74 74 74 74 75 75 75 74 74 74 74 74 73 73 74 74 74 74 74 74 74 74 75 75 75 75
53 53 53 53 54 54 54 54 55 55 56 56 56 57 57 57 57 57 57 58 58 58 58 57 57 57 57 58 58 58 59 59 60 61 62 62 63 64 65 66 67 68 69 69 70 70 70 70 69 68 68 68 69 70 70 70 70 69 68 68 68 68 68 70 72 72 72 72 72 72 72 73 73 73 73 73 73 73 73 74 74 74 75 74 74 74 74 74 74 74 73 73 74 74 74 74 74 74 74 74 75 75 75
52 52 52 52 53 53 53 54 54 55 55 55 56 56 56 56 57 57 57 57 57 57 57 57 56 56 57 57 57 58 58 59 59 60 61 61 62 63 64 66 67 68 68 69 69 70 70 70 69 68 67 68 69 70 70 70 70 69 68 68 68 68 68 71 72 72 72 72 72 72 72 72 73 73 73 72 72 72 73 73 74 74 74 74 74 74 74 74 74 74 74 73 74 74 74 74 74 74 74 74 74 74 74
51 51 51 51 52 52 53 53 54 54 54 55 55 55 55 56 56 56 57 57 57 56 56 56 56 56 56 57 57 57 58 58 59 59 60 60 61 63 64 65 66 67 68 68 69 69 70 69 69 69 68 68 69 70 70 70 70 69 69 69 68 68 69 71 72 72 72 72 72 72 72 72 73 73 73 72 72 72 72 73 74 74 74 74 74 74 74 74 74 74 74 74 74 74 74 74 74 74 74 74 74 74 74
51 51 51 51 51 52 52 52 53 53 54 54 54 54 55 55 55 56 56 56 56 56 55 55 55 56 56 56 57 57 57 58 58 58 59 60 60 62 63 63 65 66 67 68 68 69 69 69 69 69 69 69 69 69 70 70 70 70 69 69 68 69 70 71 72 72 72 72 72 72 73 72 73 73 73 72 72 72 72 73 74 74 74 74 74 74 74 74 74 74 74 74 74 74 74 74 74 74 74 74 74 74 74
50 50 50 50 50 51 51 51 52 52 53 54 54 54 54 54 55 55 55 55 55 55 54 54 55 55 56 56 56 57 57 57 58 58 58 59 59 60 61 62 63 63 65 67 67 68 68 68 69 69 69 69 69 69 69 70 70 70 69 69 69 69 71 71 72 72 72 72 72 72 73 73 73 73 73 72 72 72 72 73 73 74 74 74 74 74 74 74 74 74 73 74 74 74 74 74 74 74 74 74 74 74 74
50 50 50 49 49 50 50 51 51 52 52 53 53 53 54 54 54 54 54 54 54 54 54 54 54 55 55 55 56 56 56 57 57 57 58 58 58 59 59 60 60 61 63 64 66 67 67 67 68 68 69 69 69 69 69 69 69 69 69 69 69 70 71 71 72 72 72 72 72 72 72 73 73 73 73 72 72 73 73 73 73 73 73 73 73 73 74 74 74 74 73 74 74 74 73 73 74 74 73 74 74 74 74
49 49 49 49 49 49 49 50 50 51 51 52 52 53 53 53 54 54 54 54 54 54 54 54 54 54 55 55 55 55 56 56 56 56 57 57 58 58 58 58 59 60 61 62 63 65 66 66 67 68 68 69 69 69 69 69 69 69 69 69 69 70 70 71 71 72 72 72 72 72 72 73 73 73 73 73 73 73 73 73 73 73 73 73 73 73 73 73 74 74 74 74 74 74 74 73 73 73 73 74 74 74 74
49 49 49 48 48 49 49 49 50 50 51 51 52 52 53 53 53 53 53 53 53 53 53 53 54 54 54 54 55 55 55 55 55 55 55 56 57 57 57 58 58 58 59 60 62 63 65 65 66 67 67 68 69 69 69 69 69 69 69 69 69 69 70 71 71 72 72 72 72 72 72 72 73 73 73 73 73 73 73 73 73 73 73 73 73 73 73 73 73 73 74 74 74 74 74 74 73 73 73 73 73 74 74
48 48 48 48 48 48 48 49 49 50 50 50 51 51 52 52 52 52 52 52 52 52 53 53 53 53 54 54 54 54 54 54 54 54 55 55 56 56 56 57 57 58 58 59 60 62 64 64 65 67 67 68 68 69 69 69 69 69 69 69 69 69 70 70 71 71 72 72 72 72 72 72 72 72 72 72 73 73 72 72 73 73 73 73 73 73 73 73 73 73 73 74 74 74 74 74 74 73 73 73 73 73 74
47 47 47 47 47 47 48 48 49 49 49 50 50 51 51 51 51 51 51 51 52 52 52 52 52 53 53 53 53 54 53 53 53 53 54 54 55 55 56 56 56 56 56 57 58 61 63 63 64 66 67 67 67 68 69 69 69 68 69 69 69 69 69 70 70 71 71 72 72 72 72 72 72 72 72 72 72 72 72 72 73 73 73 73 73 73 73 73 73 73 73 73 73 73 73 74 74 74 73 73 73 73 73
46 46 46 46 46 46 47 48 48 49 49 49 50 50 50 51 51 51 50 51 51 51 51 52 52 52 52 52 52 52 52 52 52 52 53 54 54 55 55 55 56 55 55 55 57 58 61 61 62 63 65 67 67 68 68 68 68 68 68 69 69 69 69 69 70 70 71 71 72 72 72 72 72 72 72 72 72 72 72 72 73 73 73 73 73 72 72 72 73 73 73 73 73 73 73 73 74 74 74 73 73 73 73
45 45 45 45 45 45 46 47 48 48 49 49 49 49 50 50 50 50 50 50 50 50 51 51 51 51 51 51 51 51 50 50 50 51 52 52 53 54 54 55 55 54 54 54 54 56 57 57 58 59 62 65 67 68 68 68 68 68 68 69 69 69 69 69 69 70 70 71 71 72 72 72 72 72 72 73 73 72 72 72 72 73 73 73 73 72 72 72 73 73 73 73 73 73 73 73 73 74 74 73 73 73 73
44 44 44 45 45 45 45 46 47 47 48 48 49 49 49 49 49 49 49 49 49 50 50 50 50 50 50 49 49 49 49 48 49 49 50 51 52 53 53 54 54 54 53 52 52 52 52 52 53 56 60 64 67 68 68 68 68 68 68 69 69 69 69 69 69 69 70 70 71 71 72 72 72 72 72 72 73 73 72 72 72 72 72 73 72 72 72 72 72 73 73 73 73 73 73 73 73 73 73 73 73 73 73
43 43 43 43 44 44 45 45 46 46 47 47 48 48 49 48 48 48 48 49 49 49 49 49 49 49 49 48 48 47 46 46 46 47 49 49 50 51 52 52 52 52 52 50 49 47 46 47 49 54 59 63 65 67 68 68 68 68 69 69 69 69 69 69 69 69 69 70 70 71 71 71 72 72 72 72 73 73 72 72 72 72 72 72 72 72 72 72 72 72 73 72 72 73 73 73 73 73 73 73 73 73 73
41 42 42 42 43 43 44 44 45 45 46 47 47 47 47 47 47 47 47 48 48 48 48 48 48 48 48 47 46 45 43 44 45 45 46 48 49 50 50 50 51 50 50 48 46 45 44 45 48 52 57 60 63 64 66 67 67 68 68 68 69 69 69 69 69 69 69 69 70 70 71 71 71 72 72 72 72 72 72 72 72 72 72 72 72 72 72 72 72 72 72 72 72 72 73 73 73 73 73 73 73 73 73
40 40 41 41 41 42 42 43 44 45 45 46 46 46 46 46 46 46 46 46 47 47 47 47 47 47 46 45 45 42 38 39 40 42 44 46 47 48 49 49 49 49 47 46 45 44 43 44 46 50 54 56 58 60 62 63 64 66 67 67 68 69 69 69 69 69 69 69 69 70 71 71 71 71 72 72 72 72 72 72 72 72 72 72 72 72 72 72 72 72 72 72 72 72 72 73 73 73 73 73 73 73 73
38 39 40 40 40 41 41 42 43 44 44 45 45 45 45 45 45 45 45 45 45 45 46 46 46 45 45 44 42 38 33 33 35 37 40 44 45 46 47 47 46 46 45 44 43 43 43 43 45 48 51 53 54 57 58 60 62 64 66 66 67 68 69 69 69 70 69 69 69 70 70 71 71 71 71 72 72 72 72 72 72 72 72 72 72 72 72 72 72 72 72 72 72 72 72 72 73 73 72 72 73 73 73
38 39 39 39 40 40 40 40 41 42 43 44 44 44 44 43 43 43 44 44 44 44 45 45 44 44 43 42 38 34 32 31 32 33 36 40 42 44 44 43 42 42 42 42 42 42 42 43 44 46 49 51 53 55 57 59 61 63 64 65 66 67 68 69 69 70 70 70 70 70 70 70 71 71 71 71 72 72 72 72 72 72 72 72 72 72 72 72 72 72 72 72 72 72 72 72 72 72 72 72 72 73 73
36 36 37 37 38 39 39 39 40 41 42 43 43 42 42 42 41 41 42 42 42 43 43 43 42 41 41 38 35 32 31 31 32 33 35 37 39 40 40 40 40 40 40 40 40 41 42 43 44 46 48 50 52 53 54 57 59 62 63 64 65 66 67 68 68 69 69 69 69 70 70 70 70 71 71 71 71 71 72 72 72 72 72 72 72 72 72 72 72 72 72 72 72 72 72 72 72 72 72 72 72 72 73
31 31 32 33 35 36 36 36 37 38 39 41 40 38 36 37 38 39 40 40 40 40 41 41 38 36 35 33 32 31 31 32 33 33 35 36 37 38 39 39 39 39 39 39 40 41 42 44 45 46 47 49 50 51 52 54 58 60 61 63 63 65 66 67 67 68 68 69 69 69 69 70 70 70 70 71 71 71 71 71 72 72 72 72 72 72 72 72 72 72 72 72 72 72 72 72 72 72 72 72 72 72 73
28 28 28 28 29 30 31 31 32 33 35 39 37 33 31 31 33 34 37 34 34 36 37 36 33 31 31 31 31 31 31 32 32 33 34 34 35 36 36 37 38 38 39 40 41 42 43 44 45 45 46 47 49 50 50 54 56 58 59 60 61 63 64 65 66 67 68 68 68 69 69 69 70 70 70 70 71 71 71 71 71 71 71 72 72 72 72 72 72 72 72 72 72 72 72 72 72 72 72 72 72 72 73
28 28 27 27 27 28 29 29 30 31 32 36 35 31 29 29 29 31 32 31 31 31 31 31 31 31 30 30 30 31 31 32 32 33 33 33 34 34 35 36 36 37 39 41 42 43 44 44 45 45 46 46 47 48 49 53 54 56 57 58 59 61 62 63 65 66 67 67 68 68 68 69 69 69 70 70 70 71 71 71 71 71 71 71 71 71 71 72 72 72 72 72 72 71 71 72 72 72 72 72 72 72 72
25 25 25 26 27 27 28 28 29 30 31 33 32 30 29 28 28 29 30 30 30 30 30 30 30 30 30 30 30 31 31 32 33 33 33 33 33 34 34 35 35 36 37 37 39 41 43 43 44 45 45 44 45 47 48 51 53 54 55 56 58 59 60 62 63 65 65 66 67 67 68 68 69 69 69 70 70 71 71 71 71 71 71 71 71 71 71 71 71 71 71 71 71 71 71 71 72 72 72 72 72 72 72
23 24 24 26 27 27 27 28 29 30 31 31 30 29 28 27 28 29 30 30 30 30 30 30 30 30 30 30 31 31 31 32 32 32 32 32 33 33 34 34 35 35 35 35 36 37 39 41 43 43 43 42 44 45 47 49 51 53 54 54 56 57 59 61 62 63 64 65 66 67 67 68 68 69 69 70 70 70 70 71 71 70 70 70 70 71 71 71 71 71 71 71 71 71 71 71 71 72 72 72 72 72 72
23 24 24 26 27 27 27 28 29 30 31 30 30 28 27 27 28 29 30 30 30 30 30 30 30 30 30 30 31 31 31 31 32 32 32 32 33 33 33 34 34 34 34 34 35 36 36 38 39 40 40 40 42 44 45 48 50 51 52 54 54 56 58 59 61 62 63 64 65 66 67 67 68 69 69 70 70 71 71 71 70 70 70 70 70 70 70 71 71 71 71 71 71 71 71 71 71 71 72 72 72 72 72
23 23 24 25 26 27 27 28 29 29 30 29 29 28 27 27 28 29 29 29 29 29 29 30 30 30 30 30 31 31 31 31 31 32 32 32 33 33 33 33 33 33 33 33 33 34 34 35 35 36 36 37 39 41 43 46 49 50 51 52 53 54 56 58 60 61 63 63 64 65 65 67 67 68 69 70 70 71 71 71 70 70 70 70 70 70 70 70 70 71 71 70 70 70 70 70 70 71 71 72 72 72 72
22 23 23 24 25 26 26 27 28 29 29 28 28 27 27 27 28 29 29 29 29 29 30 30 30 30 30 31 31 31 31 31 31 31 32 32 33 33 33 33 33 32 32 32 31 32 32 32 32 32 33 35 36 38 40 44 46 49 50 51 52 54 55 57 59 60 61 62 63 63 64 65 66 67 68 69 70 71 71 71 71 70 70 70 70 70 70 70 70 70 70 70 70 70 70 70 70 70 71 71 72 72 72
21 22 23 23 24 25 26 27 27 27 27 27 27 27 27 28 28 29 28 29 29 29 29 29 30 30 31 31 31 31 31 31 31 31 32 32 33 33 33 32 32 32 31 31 31 31 31 31 31 31 31 33 34 36 37 40 44 47 49 50 51 52 54 56 58 59 60 61 62 63 63 64 65 66 67 68 69 70 71 71 71 70 70 70 70 70 70 70 70 70 70 70 70 70 70 70 70 70 70 71 71 72 72
20 21 22 22 23 24 25 26 27 26 26 26 26 26 27 28 28 28 28 28 28 29 29 29 30 30 31 31 31 31 31 32 31 31 31 32 32 32 32 32 32 31 31 31 31 30 31 31 31 31 31 32 33 34 36 38 42 45 47 49 50 51 53 54 56 58 59 60 61 62 62 63 64 65 66 67 69 70 71 71 71 70 70 70 70 70 70 70 70 70 70 70 70 70 70 70 70 70 70 70 71 71 72
20 20 21 22 23 24 25 25 25 25 25 25 25 25 27 27 28 28 28 28 28 28 28 29 29 30 31 31 31 30 31 31 31 31 31 32 32 32 32 32 31 31 31 31 31 31 31 31 31 32 33 33 34 34 36 38 40 44 46 47 49 50 52 53 55 56 58 59 60 61 61 62 63 64 65 67 68 69 70 70 71 71 71 70 70 70 70 69 69 69 70 70 70 70 70 70 70 70 70 70 70 71 71
20 20 21 22 22 23 24 24 23 23 23 24 24 25 27 27 27 27 27 28 28 28 28 28 29 30 31 31 31 30 30 31 31 31 31 31 31 31 32 31 31 31 31 31 31 31 31 31 31 32 33 33 34 34 36 37 38 40 44 46 48 49 50 52 53 54 56 58 59 60 60 61 62 63 64 66 67 69 70 70 70 71 71 71 71 70 70 70 70 69 69 69 69 69 69 69 69 69 69 69 70 70 71
19 20 20 21 22 22 23 22 22 22 22 23 23 25 26 27 27 27 27 27 27 28 28 28 29 31 32 32 31 31 30 30 30 30 30 31 31 30 30 30 30 30 30 30 30 31 31 31 31 31 32 33 33 34 34 35 36 38 41 45 46 48 49 50 51 53 54 56 58 58 59 60 61 62 63 64 66 68 69 70 70 70 71 71 71 71 71 70 70 70 69 69 69 69 69 69 69 69 69 69 69 70 70
19 19 20 21 22 22 22 21 21 21 22 22 23 24 25 26 26 27 27 27 27 27 27 27 29 31 33 33 32 31 30 30 30 30 29 29 29 29 29 29 30 30 30 30 30 31 31 31 31 31 31 32 33 33 32 34 36 39 41 43 44 46 48 49 50 51 53 54 56 57 58 59 59 60 61 63 65 67 68 69 70 70 70 71 71 71 71 71 70 70 70 69 69 69 69 69 69 69 69 69 69 69 69
18 19 20 21 22 22 21 21 21 21 21 22 22 23 24 25 25 26 26 27 27 27 27 27 28 31 33 33 32 31 30 29 29 29 29 28 28 28 29 29 29 29 30 30 30 31 31 31 31 31 32 31 32 32 32 33 36 38 40 41 42 44 47 48 49 50 52 53 54 56 57 58 58 58 60 62 64 66 67 69 69 70 70 70 70 71 71 71 70 70 70 69 69 69 69 69 69 69 69 69 69 69 69
18 18 20 21 21 22 22 21 21 21 20 21 22 22 23 23 24 25 26 27 27 26 27 27 29 30 32 33 32 31 30 29 28 28 28 28 28 28 28 28 29 29 29 30 30 30 31 31 31 32 32 31 31 31 31 33 35 37 38 39 41 43 45 47 48 49 51 52 54 54 56 56 57 58 58 60 63 65 67 68 69 69 70 70 70 70 70 70 70 70 70 69 69 69 69 69 69 68 69 69 69 69 69
18 18 20 21 21 21 21 21 21 20 20 20 20 21 22 22 23 24 25 26 26 26 27 27 29 31 32 33 33 31 30 29 28 28 27 27 28 28 28 28 28 29 29 29 30 31 31 31 32 32 32 31 31 31 31 33 34 35 36 38 40 43 45 46 47 48 49 51 53 54 54 55 56 56 57 58 60 63 65 67 68 69 69 70 70 70 70 70 70 70 70 69 69 69 69 69 69 68 68 69 69 68 68
17 18 19 20 20 20 20 21 20 20 20 20 19 19 20 20 22 23 24 25 26 27 27 27 28 30 32 33 33 32 31 29 28 27 27 27 27 28 28 28 29 29 29 29 30 31 31 31 31 31 31 31 31 31 31 33 33 34 36 38 40 42 45 46 46 47 49 50 52 53 54 54 55 55 56 57 58 59 62 65 67 68 69 69 69 69 69 70 70 70 70 70 70 70 69 69 69 68 68 68 68 68 68
17 18 19 20 20 20 20 20 20 20 20 20 19 19 19 19 21 22 23 24 25 27 27 27 28 29 30 32 33 32 32 29 28 27 27 27 27 27 28 28 29 29 29 30 30 31 31 31 31 31 31 31 31 31 31 32 33 33 36 38 40 41 44 45 46 47 49 50 51 52 53 54 54 55 55 55 56 57 59 62 64 67 68 68 69 69 69 69 69 70 70 70 70 70 70 69 69 68 68 68 68 68 68
17 18 19 19 20 20 20 20 20 20 20 19 19 19 18 19 19 20 22 22 24 26 27 28 28 28 29 31 32 32 31 29 28 27 27 27 27 27 27 28 28 29 29 30 30 30 31 31 31 31 31 31 31 31 32 32 32 33 34 36 39 41 44 46 47 48 49 50 50 51 53 54 54 54 55 55 55 56 57 59 62 64 67 67 68 68 69 69 69 69 69 69 70 70 70 69 69 69 68 68 68 68 68
18 18 19 19 20 20 20 19 19 20 19 19 19 18 18 18 18 18 19 20 23 25 27 28 28 28 28 31 31 31 30 29 28 27 27 27 26 26 26 27 28 28 29 30 30 30 30 30 31 31 31 31 32 32 32 32 32 33 34 35 36 38 42 44 46 48 49 50 50 51 52 53 54 54 55 55 55 55 56 58 60 63 64 66 67 68 68 68 69 69 69 69 69 70 70 70 69 69 69 68 68 68 68
18 18 19 19 20 20 19 19 19 20 19 19 19 18 18 18 18 18 18 19 22 25 27 28 28 28 28 30 30 30 30 29 28 28 27 27 26 26 26 27 27 28 29 30 30 29 30 30 30 31 31 32 32 32 32 32 32 33 34 33 34 36 38 41 44 46 48 49 50 51 52 53 54 54 55 55 55 55 55 57 59 61 63 64 66 67 67 68 68 68 69 69 69 69 69 70 69 69 69 69 68 68 68
18 18 19 19 19 20 19 19 20 20 19 19 19 18 18 17 17 17 18 19 21 23 26 28 28 28 28 29 29 28 28 28 28 28 28 27 26 26 26 27 27 28 28 29 29 29 29 30 31 32 33 33 33 32 32 32 33 33 33 32 33 34 36 38 41 44 45 47 49 50 51 53 54 55 55 55 55 55 55 56 58 60 62 63 65 66 67 67 68 68 68 68 68 69 69 69 69 69 69 69 69 68 68
18 18 18 18 18 19 18 19 19 19 18 18 18 18 18 17 17 17 18 18 20 22 25 28 29 29 28 27 27 27 26 27 27 28 28 27 26 25 26 27 27 28 28 28 28 29 29 30 31 33 34 33 32 32 32 32 33 33 32 32 33 33 35 38 41 43 43 43 45 47 50 52 54 55 56 56 55 55 55 56 58 60 61 63 64 65 66 67 67 68 68 68 68 68 69 69 69 69 69 69 69 68 68
18 18 18 18 18 18 18 18 19 19 18 18 18 18 17 17 17 17 17 18 19 21 25 28 29 29 27 27 26 26 25 26 27 28 27 26 25 25 26 27 27 27 27 27 27 28 29 30 32 33 33 33 32 32 32 33 33 32 32 32 32 33 35 37 40 42 42 42 44 46 49 51 53 54 55 56 56 56 56 57 58 59 61 62 63 64 65 66 67 67 67 68 68 68 68 68 69 69 69 69 69 69 68
18 18 17 18 18 17 17 18 18 18 17 18 18 17 17 16 16 17 17 18 19 22 26 27 28 27 26 27 26 25 25 26 27 28 27 26 25 26 27 27 27 27 27 27 27 28 29 31 31 32 32 33 33 33 33 33 33 32 31 31 32 33 34 36 37 39 40 43 45 47 49 50 52 54 55 56 56 55 55 56 57 58 60 61 63 63 64 65 66 67 67 67 67 68 68 68 68 69 69 69 69 69 68
18 18 17 17 17 17 17 17 17 17 17 17 17 16 15 15 16 16 17 18 20 22 27 26 25 24 24 26 26 25 24 26 27 27 26 25 25 26 28 28 28 27 27 26 27 28 30 31 31 31 31 33 33 33 32 32 32 31 31 31 32 33 33 34 35 36 38 42 45 46 49 50 51 53 55 57 57 56 55 55 56 58 59 61 62 63 64 64 65 66 66 67 67 67 68 68 68 68 68 68 68 68 68
18 18 16 16 16 16 16 16 17 17 16 16 16 16 15 15 16 17 18 18 21 23 26 25 23 22 22 23 23 24 24 26 26 26 25 25 25 26 27 28 27 27 26 26 27 29 31 31 31 31 31 31 31 31 30 30 31 31 31 32 32 32 32 33 34 34 36 40 42 44 48 49 50 50 53 55 56 56 55 55 55 57 58 60 61 63 63 64 65 65 66 66 67 67 67 68 68 68 68 68 68 68 68
18 17 16 16 15 15 15 15 16 17 16 16 16 16 15 16 17 18 20 20 22 23 23 22 22 21 20 21 22 23 24 25 26 25 25 24 24 24 26 27 26 25 24 25 27 29 31 30 30 30 31 30 29 29 29 30 31 31 31 32 32 32 32 32 33 34 36 38 41 44 47 48 49 49 50 52 54 54 55 55 56 56 57 59 60 61 63 63 64 65 65 66 67 67 67 67 67 68 68 68 68 68 68
16 16 15 15 15 14 15 15 15 15 15 16 16 16 16 17 18 19 20 21 22 22 21 19 19 19 18 19 20 22 23 24 25 25 24 23 23 24 25 25 24 23 22 23 25 27 29 29 29 29 28 28 28 29 29 30 31 31 32 32 32 32 32 32 33 34 36 36 39 43 46 47 48 49 49 51 52 53 53 54 55 56 57 58 59 60 62 63 64 64 65 66 66 67 67 67 67 67 67 68 68 68 68
16 15 15 15 14 14 14 14 15 15 15 17 17 16 16 18 18 19 18 20 21 21 19 18 17 18 19 18 19 20 22 23 23 24 23 23 24 26 27 25 23 21 20 21 23 26 28 28 27 27 26 27 27 29 30 31 31 32 32 32 32 32 32 33 34 34 35 35 36 39 43 45 47 49 49 50 51 52 52 53 54 56 57 58 58 59 59 61 62 63 64 65 65 66 66 67 67 67 67 67 67 68 68
15 14 14 14 14 14 14 14 14 15 18 17 15 14 15 15 16 17 18 19 19 19 18 17 16 17 18 18 19 19 21 21 22 23 23 23 25 27 28 25 22 19 19 19 21 23 25 24 24 25 25 26 27 28 29 30 31 31 32 32 32 33 33 34 34 35 35 34 35 36 40 44 46 49 49 50 51 52 52 53 54 55 57 58 58 58 58 59 60 61 63 64 65 65 66 66 67 67 67 67 67 67 68
15 14 14 13 13 13 14 14 14 15 17 15 14 14 15 15 16 17 18 19 18 18 17 17 17 17 17 17 18 18 20 20 21 22 24 25 27 27 27 23 21 19 19 19 19 19 20 21 22 24 25 26 27 27 28 29 29 30 31 31 32 33 33 34 34 35 35 34 34 35 37 41 45 48 50 50 51 52 54 54 55 56 57 58 58 58 58 59 59 59 60 61 63 64 65 65 66 67 67 67 67 67 67
14 13 13 13 13 13 14 14 14 15 15 15 14 14 15 15 16 16 17 18 18 17 17 18 18 18 17 16 16 17 18 20 21 22 24 27 27 27 24 22 21 21 21 20 18 17 17 19 21 23 24 26 27 27 27 28 28 28 29 31 31 33 33 34 34 34 34 33 34 35 36 39 43 46 49 50 51 52 53 54 55 56 57 58 58 58 59 58 58 58 58 59 61 62 63 65 65 66 66 67 67 67 67
14 13 13 13 13 13 14 14 14 15 15 14 14 14 15 15 16 16 16 17 17 17 16 17 18 18 17 17 16 17 17 19 20 21 23 27 29 28 26 23 22 21 20 19 17 17 18 20 22 23 23 25 26 27 27 28 28 28 30 31 31 31 31 32 33 33 33 34 35 36 37 39 41 43 47 49 50 51 51 53 55 56 57 58 58 58 58 58 58 58 59 59 59 61 62 64 64 65 65 66 66 67 67
13 13 13 13 13 13 13 14 14 14 14 14 14 15 15 16 16 16 16 16 16 16 17 17 18 18 18 17 17 17 18 18 19 21 23 26 28 29 28 26 22 20 18 17 17 18 20 22 22 22 22 24 26 27 27 27 27 27 30 30 30 29 30 30 31 31 32 34 35 37 38 40 39 39 41 45 48 49 49 51 53 55 57 58 58 58 58 58 58 58 59 59 59 60 60 63 63 64 65 65 65 66 66
13 13 12 13 13 13 13 13 14 14 13 14 14 15 16 16 16 16 16 16 16 16 17 18 18 18 18 18 18 18 18 18 19 21 23 24 26 28 29 27 26 25 23 21 21 22 23 24 22 21 21 23 25 26 26 25 25 26 28 28 28 29 29 29 30 31 32 34 35 36 37 38 38 38 40 42 45 48 48 49 50 52 54 56 57 58 58 58 58 58 58 58 58 59 59 61 63 63 64 64 65 65 66
13 12 12 12 13 13 13 13 13 13 13 15 15 15 16 16 16 16 15 15 16 16 18 18 18 18 18 19 19 19 18 18 18 20 22 23 25 26 27 27 27 28 28 28 27 27 26 25 23 22 22 23 24 25 25 24 24 25 26 27 28 29 29 29 30 31 32 33 35 36 36 36 37 38 39 40 43 46 47 48 49 50 52 54 56 57 57 58 58 58 58 58 58 58 59 61 62 63 63 64 64 65 65
13 13 13 13 13 13 13 13 13 13 13 15 16 16 16 16 16 16 15 15 16 18 18 18 18 18 18 19 19 18 18 18 18 20 21 21 22 23 23 24 25 26 27 28 29 29 28 25 24 24 24 23 22 22 23 23 23 24 25 26 27 28 29 29 30 31 32 33 33 34 34 35 36 37 38 38 40 43 47 48 49 49 50 53 54 56 57 57 57 58 58 58 58 58 59 60 61 62 63 64 64 64 65
13 13 13 13 13 13 13 13 13 13 13 15 16 16 16 16 16 16 16 16 18 18 18 18 18 18 18 19 19 18 18 18 20 21 21 20 20 20 21 22 23 24 26 27 27 28 29 27 27 26 26 25 23 22 21 22 22 24 24 26 27 28 29 29 31 31 32 32 32 32 32 33 35 36 36 37 38 41 45 47 48 49 49 50 52 54 56 56 57 57 58 58 58 58 59 60 61 61 62 63 64 64 65
13 14 14 14 13 13 13 13 13 13 13 16 16 16 16 16 17 17 16 16 17 18 18 18 18 17 18 18 18 19 19 20 20 21 21 20 19 20 22 22 23 23 24 25 26 27 27 28 28 29 29 28 26 23 20 21 22 23 24 25 27 28 29 30 30 31 31 31 31 31 32 32 33 35 36 36 38 39 42 45 47 48 49 49 49 51 54 55 56 56 57 57 58 58 58 59 60 60 61 62 63 63 64